YO8SDE Weather Reports


time (UTC)temp
C
wind
direction
speed
KPH
gust
KPH
rain 1hr
cm
rain 24hr
cm
rain mn
cm
humidity
%
barometer
mb
20260508055020 13 67 4.8 8.0 0.00 0.00 0.00 88 1003.0
20260508054520 13 101 6.4 8.0 0.00 0.00 0.00 89 1003.0
20260508054020 13 93 3.2 4.8 0.00 0.00 0.00 89 1003.0
20260508053520 13 75 3.2 4.8 0.00 0.00 0.00 90 1003.0
20260508053020 12 109 4.8 6.4 0.00 0.00 0.00 90 1003.0
20260508052521 12 133 6.4 6.4 0.00 0.00 0.00 90 1003.0
20260508052021 12 116 6.4 8.0 0.00 0.00 0.00 90 1003.0
20260508051520 12 84 8.0 9.7 0.00 0.00 0.00 89 1003.0
20260508051021 12 76 8.0 9.7 0.13 0.00 0.00 89 1003.0
20260508050521 12 77 8.0 11.3 0.13 0.00 0.00 87 1003.0
20260508050020 12 56 6.4 6.4 0.00 0.00 0.00 86 1003.0
20260508045521 12 90 8.0 9.7 0.00 0.00 0.00 85 1003.0
20260508045021 12 112 3.2 4.8 0.00 0.00 0.00 83 1003.0
20260508044521 13 125 1.6 1.6 0.00 0.00 0.00 83 1003.0
20260508044020 12 112 4.8 6.4 0.00 0.00 0.00 83 1003.0
20260508043522 12 108 8.0 8.0 0.00 0.00 0.00 83 1003.0
20260508043021 12 80 3.2 4.8 0.00 0.00 0.00 83 1003.0
20260508042520 12 109 1.6 3.2 0.00 0.00 0.00 83 1003.0
20260508041640 12 105 3.2 6.4 0.00 0.00 0.00 84 1003.0
20260508041021 12 84 6.4 8.0 0.00 0.00 0.00 84 1003.0
20260508040529 12 90 4.8 4.8 0.00 0.00 0.00 83 1003.0
20260508040021 12 125 9.7 11.3 0.00 0.00 0.00 83 1003.0
20260508035520 12 115 1.6 3.2 0.00 0.00 0.00 83 1003.0
20260508035020 12 118 3.2 3.2 0.00 0.00 0.00 84 1003.0
20260508034520 12 132 6.4 8.0 0.00 0.00 0.00 84 1002.0
20260508034020 12 146 4.8 6.4 0.00 0.00 0.00 84 1002.0
20260508033521 12 85 4.8 4.8 0.00 0.00 0.00 84 1002.0
20260508033020 12 128 3.2 6.4 0.00 0.00 0.00 84 1002.0
20260508032520 12 113 1.6 3.2 0.00 0.00 0.00 84 1002.0
20260508032021 12 84 1.6 1.6 0.00 0.00 0.00 84 1002.0
20260508031520 12 86 4.8 6.4 0.00 0.00 0.00 84 1002.0
20260508031020 12 111 3.2 4.8 0.00 0.00 0.00 84 1002.0
20260508030522 12 72 4.8 4.8 0.00 0.00 0.00 84 1002.0
20260508030021 12 101 8.0 9.7 0.00 0.00 0.00 84 1002.0
20260508025520 12 85 3.2 4.8 0.00 0.00 0.00 83 1002.0
20260508025021 12 113 3.2 3.2 0.00 0.00 0.00 83 1002.0
20260508024521 12 118 4.8 6.4 0.00 0.00 0.00 83 1002.0
20260508024021 12 145 4.8 6.4 0.00 0.00 0.00 83 1002.0
20260508023521 12 166 4.8 6.4 0.00 0.00 0.00 83 1002.0
20260508023020 12 134 3.2 4.8 0.00 0.00 0.00 83 1002.0
20260508022521 12 111 3.2 4.8 0.00 0.00 0.00 83 1002.0
20260508022022 12 112 3.2 3.2 0.00 0.00 0.00 83 1002.0
20260508021521 12 116 3.2 6.4 0.00 0.00 0.00 83 1002.0
20260508021021 12 100 1.6 3.2 0.00 0.00 0.00 83 1001.0
20260508020523 12 99 0.0 0.0 0.00 0.00 0.00 83 1001.0
20260508020021 12 119 3.2 3.2 0.00 0.00 0.00 82 1002.0
20260508015520 12 117 1.6 3.2 0.00 0.00 0.00 82 1002.0
20260508015020 12 142 3.2 4.8 0.00 0.00 0.00 82 1002.0
20260508014521 13 129 1.6 1.6 0.00 0.00 0.00 81 1002.0
20260508014020 13 103 4.8 4.8 0.00 0.00 0.00 81 1002.0
20260508013521 13 105 1.6 3.2 0.00 0.00 0.00 81 1001.0
20260508013020 13 107 4.8 4.8 0.00 0.00 0.00 81 1001.0
20260508012522 13 130 1.6 1.6 0.00 0.00 0.00 81 1001.0
20260508012020 13 117 1.6 3.2 0.00 0.00 0.00 81 1002.0
20260508011521 13 167 3.2 3.2 0.00 0.00 0.00 81 1002.0
20260508011021 13 93 1.6 1.6 0.00 0.00 0.00 81 1001.0
20260508010520 13 90 3.2 4.8 0.00 0.00 0.00 81 1001.0
20260508010021 13 106 8.0 8.0 0.00 0.00 0.00 80 1001.0
20260508005520 13 126 4.8 6.4 0.00 0.00 0.00 81 1001.0
20260508005020 13 121 3.2 4.8 0.00 0.00 0.00 81 1001.0
20260508004523 13 130 1.6 4.8 0.00 0.00 0.00 81 1001.0
20260508004020 13 121 3.2 6.4 0.00 0.00 0.00 81 1001.0
20260508003520 13 135 3.2 4.8 0.00 0.00 0.00 81 1001.0
20260508003022 13 128 0.0 0.0 0.00 0.00 0.00 81 1001.0
20260508002522 13 147 3.2 3.2 0.00 0.00 0.00 80 1001.0
20260508002020 13 134 6.4 6.4 0.00 0.00 0.00 80 1001.0
20260508001521 13 141 1.6 3.2 0.00 0.00 0.00 80 1001.0
20260508001020 13 148 4.8 6.4 0.00 0.00 0.00 80 1001.0
20260508000521 13 123 4.8 6.4 0.00 0.00 0.00 80 1001.0
20260508000020 13 122 6.4 6.4 0.00 0.00 0.00 79 1001.0
20260507235527 14 143 4.8 6.4 0.00 0.00 0.00 79 1001.0
20260507235021 14 121 6.4 9.7 0.00 0.00 0.00 79 1001.0
20260507234521 14 93 6.4 6.4 0.00 0.00 0.00 79 1001.0
20260507234020 14 180 4.8 14.5 0.00 0.00 0.00 78 1001.0
20260507233520 14 176 6.4 11.3 0.00 0.00 0.00 78 1001.0
20260507233020 14 135 3.2 6.4 0.00 0.00 0.00 78 1001.0
20260507232521 14 144 3.2 9.7 0.00 0.00 0.00 78 1001.0
20260507232022 14 130 6.4 11.3 0.00 0.00 0.00 78 1001.0
20260507231521 14 82 6.4 11.3 0.00 0.00 0.00 78 1001.0
20260507231020 14 154 8.0 9.7 0.00 0.00 0.00 78 1001.0
20260507230037 14 100 3.2 8.0 0.00 0.00 0.00 77 1002.0
20260507225521 15 91 6.4 9.7 0.00 0.00 0.00 77 1002.0
20260507225020 15 103 4.8 8.0 0.00 0.00 0.00 76 1002.0
20260507224520 15 126 6.4 6.4 0.00 0.00 0.00 76 1002.0
20260507224020 15 122 6.4 6.4 0.00 0.00 0.00 76 1002.0
20260507223030 15 80 6.4 6.4 0.00 0.00 0.00 75 1002.0
20260507222521 15 148 3.2 4.8 0.00 0.00 0.00 75 1002.0
20260507222021 15 131 1.6 4.8 0.00 0.00 0.00 74 1002.0
20260507221521 15 91 6.4 11.3 0.00 0.00 0.00 74 1002.0
20260507220532 15 103 8.0 11.3 0.00 0.00 0.00 74 1002.0
20260507220020 15 90 6.4 6.4 0.00 0.00 0.00 74 1002.0
20260507215521 15 114 8.0 8.0 0.00 0.00 0.00 73 1002.0
20260507215021 15 185 4.8 8.0 0.00 0.00 0.00 73 1002.0
20260507214520 15 90 6.4 8.0 0.00 0.00 0.00 73 1001.0
20260507214021 15 126 6.4 8.0 0.00 0.00 0.00 73 1001.0
20260507213521 15 133 9.7 12.9 0.00 0.00 0.00 72 1001.0
20260507213022 15 177 3.2 9.7 0.00 0.00 0.00 72 1001.0
20260507212520 16 150 11.3 12.9 0.00 0.00 0.00 72 1001.0
20260507212020 16 97 9.7 19.3 0.00 0.00 0.00 71 1002.0
20260507211521 16 129 14.5 16.1 0.00 0.00 0.00 71 1002.0
20260507211020 16 90 11.3 12.9 0.00 0.00 0.00 70 1002.0
20260507210520 16 89 6.4 8.0 0.00 0.00 0.00 69 1002.0
20260507210021 16 87 1.6 1.6 0.00 0.00 0.00 70 1001.0
20260507205522 16 79 8.0 9.7 0.00 0.00 0.00 69 1001.0
20260507205021 16 172 9.7 14.5 0.00 0.00 0.00 69 1001.0
20260507204523 16 129 9.7 9.7 0.00 0.00 0.00 68 1001.0
20260507204027 16 140 14.5 14.5 0.00 0.00 0.00 68 1001.0
20260507203521 16 104 12.9 14.5 0.00 0.00 0.00 68 1001.0
20260507203020 16 140 4.8 6.4 0.00 0.00 0.00 67 1001.0
20260507202521 17 136 8.0 12.9 0.00 0.00 0.00 66 1001.0
20260507202021 17 152 14.5 14.5 0.00 0.00 0.00 66 1001.0
20260507201521 17 128 12.9 12.9 0.00 0.00 0.00 66 1001.0
20260507201020 17 130 4.8 6.4 0.00 0.00 0.00 65 1001.0
20260507200520 17 130 9.7 9.7 0.00 0.00 0.00 65 1001.0
20260507200021 17 140 9.7 9.7 0.00 0.00 0.00 65 1001.0
20260507195520 17 180 8.0 16.1 0.00 0.00 0.00 63 1001.0
20260507195020 17 166 8.0 9.7 0.00 0.00 0.00 63 1001.0
20260507194520 17 89 9.7 12.9 0.00 0.00 0.00 63 1001.0
20260507194020 17 171 12.9 12.9 0.00 0.00 0.00 62 1001.0
20260507193521 18 200 9.7 12.9 0.00 0.00 0.00 62 1001.0
20260507193020 18 147 8.0 17.7 0.00 0.00 0.00 61 1001.0
20260507192520 18 178 11.3 20.9 0.00 0.00 0.00 61 1001.0
20260507192020 18 104 12.9 12.9 0.00 0.00 0.00 60 1001.0
20260507191523 18 141 16.1 16.1 0.00 0.00 0.00 60 1001.0
20260507191021 18 116 17.7 24.1 0.00 0.00 0.00 60 1001.0
20260507190520 18 154 16.1 19.3 0.00 0.00 0.00 59 1001.0
20260507190021 18 135 6.4 19.3 0.00 0.00 0.00 59 1001.0
20260507185520 18 120 9.7 17.7 0.00 0.00 0.00 59 1001.0
20260507185020 19 148 12.9 19.3 0.00 0.00 0.00 58 1001.0
20260507184521 19 169 8.0 17.7 0.00 0.00 0.00 58 1001.0
20260507184020 19 182 8.0 20.9 0.00 0.00 0.00 58 1001.0
20260507183521 19 130 9.7 11.3 0.00 0.00 0.00 58 1001.0
20260507183021 19 109 9.7 9.7 0.00 0.00 0.00 58 1001.0
20260507182521 19 112 8.0 11.3 0.00 0.00 0.00 58 1001.0
20260507182021 20 177 9.7 14.5 0.00 0.00 0.00 57 1001.0
20260507181521 20 120 19.3 19.3 0.00 0.00 0.00 57 1001.0
20260507181021 20 196 12.9 17.7 0.00 0.00 0.00 57 1001.0
20260507180521 20 181 8.0 11.3 0.00 0.00 0.00 57 1001.0
20260507180022 20 133 14.5 19.3 0.00 0.00 0.00 56 1001.0
20260507175520 20 120 9.7 11.3 0.00 0.00 0.00 56 1001.0
20260507175022 20 124 8.0 16.1 0.00 0.00 0.00 55 1001.0
20260507174521 20 71 8.0 12.9 0.00 0.00 0.00 55 1001.0
20260507174022 20 159 6.4 12.9 0.00 0.00 0.00 54 1001.0
20260507173522 21 114 14.5 17.7 0.00 0.00 0.00 54 1001.0
20260507173021 21 122 9.7 9.7 0.00 0.00 0.00 54 1001.0
20260507172521 21 161 24.1 27.4 0.00 0.00 0.00 53 1001.0
20260507172020 21 105 11.3 19.3 0.00 0.00 0.00 52 1000.0
20260507171520 21 167 4.8 14.5 0.00 0.00 0.00 52 1000.0
20260507171020 21 148 9.7 11.3 0.00 0.00 0.00 51 1000.0
20260507170522 22 112 9.7 9.7 0.00 0.00 0.00 50 1000.0
20260507170021 22 162 14.5 17.7 0.00 0.00 0.00 49 1000.0
20260507165521 22 123 14.5 16.1 0.00 0.00 0.00 47 1000.0
20260507165020 22 114 11.3 19.3 0.00 0.00 0.00 47 1000.0
20260507164520 22 132 12.9 29.0 0.00 0.00 0.00 45 1000.0
20260507164021 22 180 12.9 20.9 0.00 0.00 0.00 45 1000.0
20260507163521 23 198 14.5 17.7 0.00 0.00 0.00 44 1000.0
20260507163020 23 147 3.2 6.4 0.00 0.00 0.00 44 1000.0
20260507162520 23 96 8.0 14.5 0.00 0.00 0.00 44 1000.0
20260507162021 23 112 14.5 25.7 0.00 0.00 0.00 43 1000.0
20260507161521 23 160 9.7 16.1 0.00 0.00 0.00 43 1000.0
20260507161020 23 142 9.7 11.3 0.00 0.00 0.00 42 1000.0
20260507160520 23 170 14.5 14.5 0.00 0.00 0.00 42 1000.0
20260507160020 23 177 11.3 17.7 0.00 0.00 0.00 42 1000.0
20260507155520 23 104 14.5 16.1 0.00 0.00 0.00 42 1000.0
20260507155020 23 157 8.0 8.0 0.00 0.00 0.00 42 1000.0
20260507154521 24 169 8.0 9.7 0.00 0.00 0.00 41 1000.0
20260507154020 24 127 11.3 11.3 0.00 0.00 0.00 40 1000.0
20260507153521 24 177 17.7 29.0 0.00 0.00 0.00 40 1000.0
20260507153020 25 149 11.3 19.3 0.00 0.00 0.00 39 1000.0
20260507152521 25 168 12.9 12.9 0.00 0.00 0.00 39 1000.0
20260507152021 25 114 6.4 9.7 0.00 0.00 0.00 38 1000.0
20260507151522 25 131 9.7 16.1 0.00 0.00 0.00 38 1000.0
20260507151020 25 183 12.9 14.5 0.00 0.00 0.00 37 1001.0
20260507150521 25 93 16.1 24.1 0.00 0.00 0.00 37 1001.0
20260507150022 25 95 12.9 12.9 0.00 0.00 0.00 37 1001.0
20260507145520 25 203 8.0 14.5 0.00 0.00 0.00 37 1001.0
20260507145021 25 152 11.3 25.7 0.00 0.00 0.00 37 1001.0
20260507144520 25 97 11.3 17.7 0.00 0.00 0.00 36 1001.0
20260507144020 25 104 4.8 8.0 0.00 0.00 0.00 36 1001.0
20260507143521 25 116 19.3 19.3 0.00 0.00 0.00 36 1001.0
20260507143022 25 131 24.1 29.0 0.00 0.00 0.00 36 1001.0
20260507142522 25 171 11.3 19.3 0.00 0.00 0.00 36 1001.0
20260507142021 25 166 8.0 29.0 0.00 0.00 0.00 37 1001.0
20260507141520 25 68 19.3 19.3 0.00 0.00 0.00 36 1001.0
20260507141021 25 16 9.7 19.3 0.00 0.00 0.00 35 1001.0
20260507140521 26 107 17.7 19.3 0.00 0.00 0.00 34 1001.0
20260507140021 26 117 12.9 19.3 0.00 0.00 0.00 34 1001.0
20260507135521 26 153 11.3 16.1 0.00 0.00 0.00 35 1001.0
20260507135021 26 160 16.1 17.7 0.00 0.00 0.00 34 1001.0
20260507134520 26 170 12.9 27.4 0.00 0.00 0.00 33 1001.0
20260507134020 25 167 14.5 25.7 0.00 0.00 0.00 33 1001.0
20260507133520 25 123 14.5 17.7 0.00 0.00 0.00 33 1001.0
20260507133020 26 173 16.1 16.1 0.00 0.00 0.00 33 1001.0
20260507132520 26 138 11.3 14.5 0.00 0.00 0.00 33 1001.0
20260507132020 26 143 11.3 16.1 0.00 0.00 0.00 33 1001.0
20260507131520 25 131 14.5 20.9 0.00 0.00 0.00 33 1001.0
20260507131022 25 118 17.7 22.5 0.00 0.00 0.00 32 1001.0
20260507130525 25 168 11.3 24.1 0.00 0.00 0.00 31 1001.0
20260507130022 26 132 17.7 20.9 0.00 0.00 0.00 32 1001.0
20260507125521 25 151 20.9 30.6 0.00 0.00 0.00 32 1001.0
20260507125021 26 190 11.3 17.7 0.00 0.00 0.00 33 1001.0
20260507124521 26 99 11.3 16.1 0.00 0.00 0.00 32 1001.0
20260507124022 25 164 19.3 20.9 0.00 0.00 0.00 32 1001.0
20260507123520 25 232 19.3 19.3 0.00 0.00 0.00 33 1001.0
20260507123021 25 129 20.9 33.8 0.00 0.00 0.00 33 1001.0
20260507122521 26 161 8.0 17.7 0.00 0.00 0.00 31 1001.0
20260507122020 26 131 8.0 11.3 0.00 0.00 0.00 32 1001.0
20260507121520 25 169 14.5 24.1 0.00 0.00 0.00 33 1001.0
20260507121021 25 113 12.9 12.9 0.00 0.00 0.00 33 1002.0
20260507120520 25 124 11.3 25.7 0.00 0.00 0.00 32 1002.0
20260507120021 25 136 9.7 11.3 0.00 0.00 0.00 32 1002.0
20260507115520 25 117 20.9 25.7 0.00 0.00 0.00 31 1002.0
20260507115020 26 146 11.3 17.7 0.00 0.00 0.00 30 1002.0
20260507114521 26 149 11.3 22.5 0.00 0.00 0.00 30 1002.0
20260507114020 26 190 9.7 12.9 0.00 0.00 0.00 30 1002.0
20260507113520 26 174 16.1 19.3 0.00 0.00 0.00 30 1002.0
20260507113020 26 203 8.0 19.3 0.00 0.00 0.00 30 1002.0
20260507112521 25 171 12.9 17.7 0.00 0.00 0.00 31 1002.0
20260507112023 26 147 11.3 16.1 0.00 0.00 0.00 30 1002.0
20260507111521 26 123 8.0 9.7 0.00 0.00 0.00 29 1002.0
20260507111021 26 223 8.0 20.9 0.00 0.00 0.00 31 1002.0
20260507110520 26 85 11.3 12.9 0.00 0.00 0.00 29 1002.0
20260507110020 25 182 14.5 24.1 0.00 0.00 0.00 30 1002.0
20260507105520 26 254 6.4 8.0 0.00 0.00 0.00 30 1002.0
20260507105021 26 219 14.5 24.1 0.00 0.00 0.00 29 1002.0
20260507104520 26 231 12.9 12.9 0.00 0.00 0.00 30 1002.0
20260507104021 25 188 12.9 14.5 0.00 0.00 0.00 29 1002.0
20260507103521 26 197 12.9 14.5 0.00 0.00 0.00 29 1002.0
20260507103021 25 204 14.5 14.5 0.00 0.00 0.00 29 1002.0
20260507102520 25 183 19.3 19.3 0.00 0.00 0.00 30 1003.0
20260507102021 26 135 11.3 17.7 0.00 0.00 0.00 29 1003.0
20260507101520 25 4 8.0 16.1 0.00 0.00 0.00 29 1003.0
20260507101021 25 134 4.8 14.5 0.00 0.00 0.00 30 1003.0
20260507100520 25 160 12.9 29.0 0.00 0.00 0.00 29 1003.0
20260507100021 25 125 11.3 14.5 0.00 0.00 0.00 29 1003.0
20260507095521 26 144 11.3 11.3 0.00 0.00 0.00 29 1003.0
20260507095020 25 127 20.9 27.4 0.00 0.00 0.00 29 1003.0
20260507094520 25 183 8.0 14.5 0.00 0.00 0.00 29 1003.0
20260507094020 25 151 19.3 19.3 0.00 0.00 0.00 29 1003.0
20260507093521 25 198 11.3 12.9 0.00 0.00 0.00 30 1003.0
20260507093020 25 218 6.4 16.1 0.00 0.00 0.00 30 1003.0
20260507092521 24 198 11.3 14.5 0.00 0.00 0.00 31 1003.0
20260507092020 24 148 8.0 22.5 0.00 0.00 0.00 31 1003.0
20260507091521 24 150 6.4 6.4 0.00 0.00 0.00 30 1003.0
20260507091021 24 207 11.3 16.1 0.00 0.00 0.00 31 1003.0
20260507090521 24 203 11.3 25.7 0.00 0.00 0.00 29 1003.0
20260507090021 25 234 12.9 12.9 0.00 0.00 0.00 29 1003.0
20260507085521 25 224 9.7 12.9 0.00 0.00 0.00 29 1003.0
20260507085020 24 132 8.0 19.3 0.00 0.00 0.00 29 1003.0
20260507084520 24 228 14.5 14.5 0.00 0.00 0.00 29 1003.0
20260507084020 25 140 6.4 8.0 0.00 0.00 0.00 28 1003.0
20260507083520 23 160 11.3 24.1 0.00 0.00 0.00 29 1003.0
20260507083021 24 102 12.9 12.9 0.00 0.00 0.00 28 1003.0
20260507082520 23 172 9.7 19.3 0.00 0.00 0.00 29 1003.0
20260507082020 24 90 6.4 9.7 0.00 0.00 0.00 29 1003.0
20260507081520 23 121 12.9 16.1 0.00 0.00 0.00 30 1003.0
20260507081023 23 141 14.5 17.7 0.00 0.00 0.00 31 1003.0
20260507080520 24 90 8.0 12.9 0.00 0.00 0.00 31 1003.0
20260507080021 23 164 6.4 6.4 0.00 0.00 0.00 31 1003.0
20260507075521 23 181 6.4 8.0 0.00 0.00 0.00 31 1003.0
20260507075020 23 254 12.9 12.9 0.00 0.00 0.00 31 1003.0
20260507074521 23 129 14.5 14.5 0.00 0.00 0.00 33 1003.0
20260507074021 23 180 9.7 16.1 0.00 0.00 0.00 32 1003.0
20260507073521 23 94 8.0 19.3 0.00 0.00 0.00 33 1003.0
20260507073020 22 186 12.9 12.9 0.00 0.00 0.00 33 1003.0
20260507072520 22 134 12.9 14.5 0.00 0.00 0.00 33 1003.0
20260507072021 22 114 9.7 12.9 0.00 0.00 0.00 34 1003.0
20260507071520 22 171 8.0 11.3 0.00 0.00 0.00 35 1003.0
20260507071021 22 112 14.5 19.3 0.00 0.00 0.00 35 1003.0
20260507070521 22 158 14.5 17.7 0.00 0.00 0.00 34 1003.0
20260507070024 21 204 11.3 12.9 0.00 0.00 0.00 35 1003.0
20260507065520 21 156 9.7 16.1 0.00 0.00 0.00 36 1003.0
20260507065021 21 222 12.9 14.5 0.00 0.00 0.00 36 1003.0
20260507064521 21 162 12.9 12.9 0.00 0.00 0.00 37 1003.0
20260507064020 21 102 4.8 6.4 0.00 0.00 0.00 40 1003.0
20260507063520 21 173 3.2 9.7 0.00 0.00 0.00 40 1003.0
20260507063021 21 117 8.0 8.0 0.00 0.00 0.00 44 1003.0
20260507062522 20 191 4.8 6.4 0.00 0.00 0.00 46 1003.0
20260507062022 20 73 6.4 11.3 0.00 0.00 0.00 46 1003.0
20260507061522 19 84 12.9 12.9 0.00 0.00 0.00 46 1003.0
20260507061021 18 110 11.3 16.1 0.00 0.00 0.00 48 1003.0
20260507060521 19 62 12.9 12.9 0.00 0.00 0.00 48 1003.0
20260507060021 19 95 6.4 12.9 0.00 0.00 0.00 48 1003.0
20260507055520 18 174 6.4 9.7 0.00 0.00 0.00 48 1003.0